Location: Assche-ter-Heiden
(50.9174°N, 4.1574°E)
Time: 00:05:38
(UTC+00:00)

Cosmos 1825 Rocket - Pass Details

Date: 20 January 2020
Orbit: 604 x 630 km, 82.5° (Epoch: 28 February)

Event Time Altitude Azimuth Distance (km) Brightness Sun altitude
Exits shadow 04:57:36 21° 3° (N) 1,382 5.3 -24.4°
Maximum altitude 05:00:22 58° 76° (ENE) 712 4.0 -24.0°
Drops below altitude 10° 05:04:38 10° 156° (SSE) 1,956 6.4 -23.3°
Sets 05:06:52 0° 161° (SSE) 2,858 7.3 -22.9°
